CONNECTA IOT-7

导读 | 星芒AI

CONNECTA IOT-7 是一颗低轨物联网卫星,由韩国公司CONNECTA研发,旨在提供广域、低功耗的物联网连接服务。该卫星支持LoRa通信协议,可实现偏远地区设备的数据传输,适用于智能农业、环境监测和物流追踪等领域。IOT-7 于2023年发射,是CONNECTA物联网卫星星座计划的一部分,致力于构建覆盖全球的物联网通信网络,推动万物互联的发展。

基本信息
目录编号:
62715
目录名称:
CONNECTA IOT-7
国际标识:
2025-009DL
轨道中心:
EARTH
卫星名称:
CONNECTA IOT-7
卫星全名:
CONNECTA IOT-7
卫星状态:
在轨 (已飞行333 天)
发射日期:
2025-01-14 UTC
国别 :
土耳其 (TR)
星等 :
--
轨道信息
数据来源 国际轨道数据
星历时间: 2025-12-13T07:19:39+0800
10小时前
查看轨道信息
半长轴: 6964.627km
偏心率: 0.0002941
轨道倾角: 97.726°
近地点辐角 93.653°
升交点赤经 64.076°
平近点角 266.503°
近地点: 584.443km
远地点: 588.541km
周期: 96.407分钟
每日圈数: 14.936748
详细信息
使用方式:
暂无
2D轨道图
3D轨道图
轨道高度分析图
轨道倾角分析图
轨道综合分析图
查看轨道综合分析图